sat.trackr.live / text

‹ back to catalog

STARLINK-3098

NORAD 49442 · 2021-104AL

PAYLOAD ACTIVE UNKNOWN

§ Identity

Operator
Country
US
Launch date
2021-11-13
Launch site
AFETR
Launch vehicle
Mass (kg)
RCS (m²)

Purposes: comms

External: N2YO · Heavens-Above · Gunter

§ Orbital elements

Epoch: 2026-09-20T04:00:03.000096Z

Period
92.55 min
Inclination
53.1588°
Eccentricity
0.0001445
Mean motion
15.55921913 rev/d
Perigee alt
398.5 km
Apogee alt
400.5 km
Semi-major
6,777.6 km
B*
1.5887e-2
RAAN
37.6868°
Arg perigee
106.6296°
Mean anomaly
350.9587°
Rev number
591

§ Raw data

STARLINK-30981 49442U 21104AL  26263.16670139  .01234578  00000+0  15887-1 0  99922 49442  53.1588  37.6868 0001445 106.6296 350.9587 15.55921913  5910

JSON: /api/v1/satellites/49442 · /tle

For live sub-satellite position, see the globe view (requires WebGL).

§ Visibility from observer

Set your observer location to see the next 7 days of passes ≥ 10°. The values pass through the URL so the page stays shareable.

No JS? Fill the form by hand. The geolocation button needs JavaScript.